Hebron, NE

7:45 AM CST on February 22, 2018 (GMT -0600)
Hebron Municipal

Weather History for KHJH - March, 2012

Change the Weather History Date:

Friday, March 16, 2012

  Actual Average Record
Temperature  
Mean Temperature 60 °F -  
Max Temperature 78 °F 50 °F 89 °F (2015)
Min Temperature 42 °F 27 °F 1 °F (1949)
Degree Days  
Heating Degree Days 5    
Growing Degree Days 10 (Base 50)    
Moisture  
Dew Point 53 °F    
Average Humidity 77    
Maximum Humidity 99    
Minimum Humidity 45    
Precipitation  
Precipitation 0.00 in - - ()
Sea Level Pressure  
Sea Level Pressure 29.87 in    
Wind  
Wind Speed 4 mph (South)    
Max Wind Speed 17 mph    
Max Gust Speed 24 mph    
Visibility 6 miles    
Events Fog    
Averages and records for this station are not official NWS values.
T = Trace of Precipitation, MM = Missing Value Source: NWS Daily Summary

Daily Weather History Graph

Daily Weather History Graph

Search for Another Location

Airport or City:

Trip Planner

Search our weather history database for the weather conditions in past years. The results will help you decide how hot, cold, wet, or windy it might be!

Date:

Astronomy

Mar. 16, 2012 Rise Set
Actual Time 7:39 AM CDT 7:38 PM CDT
Civil Twilight 7:12 AM CDT 8:05 PM CDT
Nautical Twilight 6:40 AM CDT 8:37 PM CDT
Astronomical Twilight 6:08 AM CDT 9:09 PM CDT
Moon 3:59 AM CDT (3/16) 2:00 PM CDT (3/16)
Length of Visible Light 12h 53m
Length of Day
11h 59m
Waning Crescent, 32% of the Moon is Illuminated
Mar 16
Waning Crescent
Mar 22
New
Mar 30
First Quarter
Apr 6
Full
Apr 13
Last Quarter

Hourly Weather History & Observations

Time (CDT) Temp. Windchill Dew Point Humidity Pressure Visibility Wind Dir Wind Speed Gust Speed Precip Events Conditions
12:15 AM 53.2 °F - 50.4 °F 90% 29.94 in 7.0 mi Calm Calm - N/A   Clear
12:35 AM 52.2 °F - 50.2 °F 93% 29.94 in 7.0 mi Calm Calm - N/A   Clear
12:55 AM 51.6 °F - 49.6 °F 93% 29.94 in 7.0 mi Calm Calm - N/A   Clear
1:15 AM 50.5 °F - 49.3 °F 95% 29.94 in 5.0 mi Calm Calm - N/A   Clear
1:35 AM 50.7 °F - 49.5 °F 95% 29.93 in 5.0 mi Calm Calm - N/A   Clear
1:55 AM 50.0 °F - 48.7 °F 95% 29.93 in 5.0 mi Calm Calm - N/A   Clear
2:15 AM 50.4 °F - 49.1 °F 95% 29.93 in 5.0 mi Calm Calm - N/A   Clear
2:35 AM 49.6 °F - 48.2 °F 95% 29.93 in 5.0 mi Calm Calm - N/A   Clear
2:55 AM 49.1 °F - 47.5 °F 94% 29.93 in 5.0 mi Calm Calm - N/A   Clear
3:35 AM 48.2 °F - 47.3 °F 97% 29.92 in 4.0 mi Calm Calm - N/A   Clear
3:55 AM 47.8 °F - 46.9 °F 97% 29.92 in 4.0 mi Calm Calm - N/A   Clear
4:15 AM 47.3 °F - 46.4 °F 97% 29.92 in 3.0 mi Calm Calm - N/A   Clear
4:35 AM 46.6 °F - 45.7 °F 97% 29.92 in 2.5 mi Calm Calm - N/A   Clear
4:55 AM 45.7 °F - 45.0 °F 97% 29.91 in 2.5 mi Calm Calm - N/A   Clear
5:15 AM 44.8 °F - 44.1 °F 97% 29.91 in 2.5 mi Calm Calm - N/A   Clear
5:35 AM 44.8 °F - 44.2 °F 98% 29.91 in 1.0 mi Calm Calm - N/A   Mist
5:55 AM 45.0 °F - 44.6 °F 99% 29.91 in 1.8 mi Calm Calm - N/A   Mist
6:15 AM 45.1 °F - 44.6 °F 98% 29.91 in 2.0 mi Calm Calm - N/A   Clear
6:35 AM 45.1 °F 43.7 °F 44.8 °F 99% 29.92 in 1.8 mi WNW 3.5 mph - N/A   Mist
6:55 AM 44.6 °F - 44.2 °F 99% 29.93 in 0.8 mi Calm Calm - N/A   Mostly Cloudy
7:15 AM 43.7 °F - 43.3 °F 99% 29.93 in 0.2 mi Calm Calm - N/A Fog Fog
7:35 AM 42.4 °F - 41.9 °F 98% 29.93 in 0.5 mi Calm Calm - N/A Fog Fog
7:55 AM 42.8 °F - 42.6 °F 99% 29.93 in 0.5 mi Calm Calm - N/A Fog Fog
8:15 AM 42.8 °F - 42.6 °F 99% 29.93 in 0.5 mi Calm Calm - N/A Fog Fog
8:35 AM 43.7 °F - 43.2 °F 98% 29.93 in 0.2 mi Calm Calm - N/A Fog Fog
8:55 AM 44.6 °F - 44.1 °F 98% 29.93 in 0.2 mi Calm Calm - N/A Fog Fog
9:15 AM 45.5 °F - 45.1 °F 99% 29.93 in 0.2 mi Calm Calm - N/A Fog Fog
9:35 AM 46.9 °F - 46.6 °F 99% 29.93 in 0.2 mi Calm Calm - N/A Fog Fog
9:55 AM 48.7 °F - 48.4 °F 99% 29.92 in 0.5 mi Calm Calm - N/A Fog Fog
11:15 AM 64.9 °F - 56.5 °F 74% 29.92 in 7.0 mi Calm Calm - N/A   Clear
11:35 AM 68.4 °F - 57.2 °F 67% 29.91 in 7.0 mi SSE 4.6 mph - N/A   Clear
11:55 AM 71.1 °F - 57.6 °F 62% 29.90 in 10.0 mi Calm Calm - N/A   Clear
12:15 PM 73.0 °F - 57.6 °F 58% 29.89 in 10.0 mi South 4.6 mph - N/A   Clear
12:35 PM 75.2 °F - 57.4 °F 54% 29.89 in 10.0 mi South 5.8 mph - N/A   Clear
12:55 PM 76.1 °F - 57.6 °F 53% 29.88 in 10.0 mi SSE 10.4 mph 24.2 mph N/A   Clear
1:15 PM 74.1 °F - 59.0 °F 59% 29.88 in 10.0 mi SSE 13.8 mph - N/A   Clear
1:35 PM 73.8 °F - 57.6 °F 57% 29.88 in 10.0 mi SSE 13.8 mph - N/A   Clear
1:55 PM 75.2 °F - 57.9 °F 55% 29.87 in 10.0 mi South 10.4 mph - N/A   Clear
2:15 PM 76.8 °F - 56.5 °F 49% 29.85 in 10.0 mi South 10.4 mph - N/A   Clear
2:35 PM 77.7 °F - 55.8 °F 47% 29.83 in 10.0 mi South 13.8 mph - N/A   Clear
2:55 PM 78.1 °F - 56.7 °F 48% 29.82 in 10.0 mi South 17.3 mph 20.7 mph N/A   Clear
3:15 PM 77.9 °F - 58.1 °F 50% 29.81 in 10.0 mi SSE 13.8 mph 20.7 mph N/A   Clear
3:35 PM 77.0 °F - 59.2 °F 54% 29.81 in 10.0 mi South 16.1 mph - N/A   Clear
3:55 PM 74.8 °F - 59.9 °F 60% 29.81 in 10.0 mi SSE 17.3 mph - N/A   Clear
4:15 PM 73.8 °F - 60.1 °F 62% 29.81 in 10.0 mi South 15.0 mph 20.7 mph N/A   Clear
4:35 PM 75.2 °F - 59.5 °F 58% 29.81 in 10.0 mi South 13.8 mph 20.7 mph N/A   Clear
4:55 PM 76.3 °F - 59.2 °F 55% 29.80 in 10.0 mi South 15.0 mph 21.9 mph N/A   Clear
5:15 PM 78.1 °F - 57.9 °F 50% 29.79 in 10.0 mi South 17.3 mph 23.0 mph N/A   Clear
5:35 PM 78.8 °F - 57.9 °F 49% 29.78 in 10.0 mi South 16.1 mph 21.9 mph N/A   Clear
5:55 PM 78.1 °F - 58.1 °F 50% 29.78 in 10.0 mi South 13.8 mph - N/A   Clear
6:15 PM 77.2 °F - 57.6 °F 51% 29.78 in 10.0 mi South 13.8 mph 17.3 mph N/A   Clear
6:35 PM 77.9 °F - 55.0 °F 45% 29.78 in 10.0 mi South 16.1 mph 20.7 mph N/A   Clear
6:55 PM 76.6 °F - 57.0 °F 51% 29.78 in 10.0 mi South 15.0 mph 19.6 mph N/A   Clear
7:15 PM 74.8 °F - 58.3 °F 56% 29.78 in 10.0 mi South 17.3 mph 21.9 mph N/A   Clear
7:35 PM 72.9 °F - 59.2 °F 62% 29.79 in 10.0 mi South 13.8 mph 24.2 mph N/A   Clear
7:55 PM 71.2 °F - 59.9 °F 67% 29.80 in 10.0 mi South 10.4 mph - N/A   Clear
8:15 PM 70.0 °F - 59.9 °F 70% 29.80 in 10.0 mi South 9.2 mph - N/A   Clear
8:35 PM 69.3 °F - 60.1 °F 72% 29.80 in 10.0 mi South 10.4 mph - N/A   Clear
8:55 PM 68.9 °F - 60.6 °F 75% 29.81 in 10.0 mi SSE 11.5 mph - N/A   Clear
9:15 PM 68.5 °F - 60.8 °F 76% 29.81 in 10.0 mi South 10.4 mph 18.4 mph N/A   Clear
9:35 PM 68.0 °F - 60.8 °F 78% 29.81 in 7.0 mi South 10.4 mph - N/A   Clear
9:55 PM 68.0 °F - 61.2 °F 79% 29.81 in 10.0 mi South 12.7 mph - N/A   Clear
10:15 PM 67.6 °F - 61.3 °F 80% 29.81 in 10.0 mi South 16.1 mph - N/A   Clear
10:35 PM 67.1 °F - 61.3 °F 82% 29.81 in 10.0 mi South 12.7 mph - N/A   Clear
10:55 PM 66.7 °F - 61.7 °F 84% 29.81 in 10.0 mi South 13.8 mph 18.4 mph N/A   Clear
11:15 PM 67.5 °F - 62.1 °F 83% 29.81 in 10.0 mi South 17.3 mph 23.0 mph N/A   Clear
11:35 PM 67.5 °F - 62.2 °F 83% 29.80 in 10.0 mi South 17.3 mph 23.0 mph N/A   Clear
11:55 PM 67.1 °F - 62.1 °F 84% 29.80 in 10.0 mi South 16.1 mph 21.9 mph N/A   Clear